Regional Weather Roundup
Issued by NWS

Home | Current Version | Previous Version | Text Only | Print | Product List | Glossary On
Versions: 1 2 3 4 5 6 7 8 9 10 11 12 13 14 15 16 17 18 19 20 21 22 23 24 25 26 27 28 29 30 31 32 33 34 35 36 37 38 39 40 41 42 43 44 45 46 47 48 49 50
000
ASUS45 KABQ 292110
RWRNM
NEW MEXICO REGIONAL WEATHER ROUNDUP
NATIONAL WEATHER SERVICE ALBUQUERQUE NM
300 PM MDT SAT AUG 29 2015

NOTE: "FAIR" MEANS FEW OR NO CLOUDS BELOW 12,000 FEET AGL WITH NO
       SIGNIFICANT WEATHER OR OBSTRUCTIONS TO VISION.

      THIS PRODUCT IS RELEASED AS TWO VERSIONS.  ONE VERSION NEAR
      THE TOP OF THE HOUR CONTAINING PRELIMINARY DATA FROM ALBUQUERQUE
      AND OTHER STATIONS.  A FINAL VERSION WITH ADDITIONAL DATA IS
      ISSUED ABOUT 10 MINUTES AFTER THE HOUR.

NMZ501-503-504-510>518-292200-
NORTHWEST PLATEAU/NORTHCENTRAL MOUNTAINS

CITY           SKY/WX    TMP DP  RH WIND       PRES   REMARKS
FARMINGTON     FAIR      90  43  19 S8        30.21F
LOS ALAMOS     FAIR      78  39  25 W12G17    30.38F
SANTA FE       LGT RAIN  68  52  56 E10       30.32S
TAOS           FAIR      77  39  25 NW13G20   30.37F
ANGEL FIRE     MOCLDY    57  49  72 SW7       30.50

$$
NMZ402-403-502-505>509-292200-
WESTCENTRAL MOUNTAINS/SOUTHWEST MOUNTAINS

CITY           SKY/WX    TMP DP  RH WIND       PRES   REMARKS
GALLUP         FAIR      87  39  18 SE10      30.28F
GRANTS         FAIR      83  46  27 SE12G17   30.32F
SILVER CITY      N/A     84  48  28 S7        30.23F

$$
NMZ407-409-411-412-292200-
SOUTHERN DESERTS

CITY           SKY/WX    TMP DP  RH WIND       PRES   REMARKS
DEMING         FAIR      90  51  26 SE12      30.13F
LAS CRUCES     FAIR      90  48  23 CALM      30.15F
HOLLOMAN AFB   FAIR      93  52  24 S8        30.09F
ALAMOGORDO     FAIR      91  48  22 S6G18     30.12F
T OR C         FAIR      90  48  23 E8        30.16F

$$
NMZ519>523-292200-
CENTRAL VALLEYS/CENTRAL HIGHLANDS

CITY           SKY/WX    TMP DP  RH WIND       PRES   REMARKS
ALBUQUERQUE    FAIR      88  46  23 VRB6      30.21F
DOUBLE EAGLE   PTSUNNY   88  45  22 MISG      30.26F
MORIARTY ARPT  FAIR      81  40  22 E7        30.31F
CLINES CORNERS FAIR      76  42  29 E8        30.36F
BELEN          FAIR      89  40  17 E3        30.21F
SOCORRO        FAIR      90  47  22 N7        30.17F

$$
NMZ524>526-539-540-292200-
SOUTHCENTRAL MOUNTAINS

CITY           SKY/WX    TMP DP  RH WIND       PRES   REMARKS
RUIDOSO        FAIR      75  50  41 MISG      30.36F

$$
NMZ527>531-292200-
NORTHEAST HIGHLANDS/NORTHEAST PLAINS

CITY           SKY/WX    TMP DP  RH WIND       PRES   REMARKS
LAS VEGAS      FAIR      78  43  28 SE9       30.36S
RATON          FAIR      84  40  21 SE3       30.28F
CLAYTON        FAIR      84  47  27 NE9       30.24F

$$
NMZ532>537-292200-
EASTCENTRAL PLAINS

CITY           SKY/WX    TMP DP  RH WIND       PRES   REMARKS
TUCUMCARI      FAIR      90  49  24 VRB7      30.14F
CANNON AFB     FAIR      87  54  32 E12       30.17F
CLOVIS AIRPORT PTSUNNY   82  55  39 E26G43    30.21R

$$
NMZ028-029-538-292200-
SOUTHEAST PLAINS

CITY           SKY/WX    TMP DP  RH WIND       PRES   REMARKS
ROSWELL        FAIR      89  56  32 E9        30.12F
ARTESIA        FAIR      88  57  35 SE5       30.13F
CARLSBAD       NOT AVBL


$$


USA.gov is the U.S. government's official web portal to all federal, state and local government web resources and services.